Date String (YYYY-MM-DD hh:mm:ss) UTC,Instrument flags,Ambient pressure (hPa),Sample flow (lpm),Bypass flow (lpm),Sample temperature (°C),Ambient temperature (°C),ASC tube jacket temperature (°C),LED temperature (°C),Box temperature (°C),Sample RH (%),Span deviation,Mass concentration (μg/m³),Mass concentration (μg/m³),Mass concentration (μg/m³)
DateTimeUTC,F1_M11,P_M11,Q1_M11,Q2_M11,T1_M11,T2_M11,T3_M11,T4_M11,T5_M11,U1_M11,ZSPAN_M11,X0_M11,X2_M11,X1_M11
2022-12-17 12:00:00,,0821.5,4.96,0.00,22.1,20.4,00.0,31.0,23.8,03.7,0000.0,0007.13,0003.42,0003.05
2022-12-17 12:01:00,,0821.4,5.03,0.00,22.1,20.4,00.0,31.0,23.8,03.8,0000.0,0007.09,0003.41,0003.03
2022-12-17 12:02:00,,0821.4,4.96,0.00,22.0,20.3,00.0,31.0,23.7,03.8,0000.0,0007.03,0003.39,0003.03
2022-12-17 12:03:00,,0821.4,5.04,0.00,22.1,21.1,00.0,30.9,23.9,03.8,0000.0,0007.07,0003.39,0003.03
2022-12-17 12:04:00,,0821.5,4.99,0.00,22.2,22.0,00.0,30.9,24.1,03.8,0000.0,0007.15,0003.41,0003.03
2022-12-17 12:05:00,,0821.6,4.98,0.00,22.3,22.1,00.0,30.9,24.2,03.7,0000.0,0007.41,0003.45,0003.02
2022-12-17 12:06:00,,0821.6,5.01,0.00,22.3,21.7,00.0,31.0,24.1,03.7,0000.0,0007.15,0003.44,0003.01
2022-12-17 12:07:00,,0821.5,4.99,0.00,22.2,21.3,00.0,31.0,24.0,03.7,0000.0,0006.50,0003.43,0003.02
2022-12-17 12:08:00,,0821.5,4.99,0.00,22.2,21.0,00.0,31.0,23.9,03.7,0000.0,0006.14,0003.45,0003.04
2022-12-17 12:09:00,,0821.4,5.00,0.00,22.2,20.8,00.0,31.0,23.9,03.7,0000.0,0005.97,0003.53,0003.07
2022-12-17 12:10:00,,0821.5,5.02,0.00,22.1,20.6,00.0,31.0,23.8,03.6,0000.0,0006.11,0003.54,0003.08
2022-12-17 12:11:00,,0821.5,4.97,0.00,22.1,20.5,00.0,31.0,23.8,03.7,0000.0,0006.26,0003.54,0003.06
2022-12-17 12:12:00,,0821.4,5.04,0.00,22.1,20.4,00.0,31.0,23.8,03.7,0000.0,0006.42,0003.57,0003.06
2022-12-17 12:13:00,,0821.4,4.95,0.00,22.0,20.3,00.0,31.0,23.7,03.6,0000.0,0006.33,0003.54,0003.03
2022-12-17 12:14:00,,0821.4,5.02,0.00,22.0,20.3,00.0,31.0,23.7,03.7,0000.0,0006.33,0003.53,0003.01
2022-12-17 12:15:00,,0821.5,4.97,0.00,22.0,20.8,00.0,30.9,23.8,03.7,0000.0,0006.40,0003.54,0003.00
2022-12-17 12:16:00,,0821.6,5.05,0.00,22.1,21.8,00.0,30.9,24.1,03.6,0000.0,0006.19,0003.50,0002.99
2022-12-17 12:17:00,,0821.6,4.96,0.00,22.2,22.2,00.0,30.9,24.2,03.6,0000.0,0006.93,0003.50,0002.98
2022-12-17 12:18:00,,0821.6,5.04,0.00,22.2,21.8,00.0,31.0,24.1,03.6,0000.0,0007.67,0003.52,0002.97
2022-12-17 12:19:00,,0821.7,4.97,0.00,22.2,21.5,00.0,31.0,24.1,03.6,0000.0,0007.87,0003.51,0002.92
2022-12-17 12:20:00,,0821.6,4.97,0.00,22.2,21.1,00.0,31.0,24.0,03.6,0000.0,0007.66,0003.45,0002.89
2022-12-17 12:21:00,,0821.7,5.03,0.00,22.2,20.9,00.0,31.0,23.9,03.6,0000.0,0007.55,0003.44,0002.88
2022-12-17 12:22:00,,0821.7,4.96,0.00,22.1,20.7,00.0,31.0,23.9,03.7,0000.0,0007.35,0003.39,0002.85
2022-12-17 12:23:00,,0821.6,5.05,0.00,22.1,20.6,00.0,31.0,23.8,03.6,0000.0,0007.14,0003.33,0002.82
2022-12-17 12:24:00,,0821.7,4.97,0.00,22.1,20.5,00.0,31.0,23.8,03.7,0000.0,0007.11,0003.33,0002.80
2022-12-17 12:25:00,,0821.7,5.03,0.00,22.0,20.4,00.0,31.0,23.7,03.6,0000.0,0007.58,0003.30,0002.76
2022-12-17 12:26:00,,0821.6,5.02,0.00,22.0,20.3,00.0,31.0,23.7,03.6,0000.0,0007.82,0003.24,0002.73
2022-12-17 12:27:00,,0821.7,4.97,0.00,22.0,20.5,00.0,30.9,23.7,03.6,0000.0,0007.79,0003.23,0002.70
2022-12-17 12:28:00,,0821.7,5.03,0.00,22.1,21.5,00.0,30.9,24.0,03.6,0000.0,0007.39,0003.22,0002.67
2022-12-17 12:29:00,,0821.6,4.96,0.00,22.2,22.1,00.0,30.9,24.1,03.6,0000.0,0006.47,0003.21,0002.66
2022-12-17 12:30:00,,0821.6,5.03,0.00,22.2,21.9,00.0,30.9,24.1,03.6,0000.0,0006.38,0003.21,0002.66
2022-12-17 12:31:00,,0821.7,4.98,0.00,22.2,21.5,00.0,31.0,24.1,03.6,0000.0,0006.36,0003.19,0002.63
2022-12-17 12:32:00,,0821.7,4.97,0.00,22.2,21.2,00.0,31.0,24.0,03.6,0000.0,0006.58,0003.16,0002.61
2022-12-17 12:33:00,,0821.8,5.03,0.00,22.2,21.0,00.0,31.0,24.0,03.6,0000.0,0006.89,0003.19,0002.59
2022-12-17 12:34:00,,0821.8,4.96,0.00,22.1,20.8,00.0,31.0,23.9,03.6,0000.0,0006.98,0003.20,0002.58
2022-12-17 12:35:00,,0821.8,5.03,0.00,22.1,20.6,00.0,31.0,23.8,03.7,0000.0,0007.25,0003.23,0002.58
2022-12-17 12:36:00,,0821.8,4.99,0.00,22.1,20.4,00.0,31.0,23.7,03.8,0000.0,0006.66,0003.22,0002.58
2022-12-17 12:37:00,,0821.8,5.00,0.00,22.0,20.3,00.0,30.9,23.7,03.7,0000.0,0005.93,0003.22,0002.57
2022-12-17 12:38:00,,0821.8,5.03,0.00,22.0,20.2,00.0,30.9,23.7,03.7,0000.0,0006.02,0003.20,0002.55
2022-12-17 12:39:00,,0821.8,4.97,0.00,22.0,20.7,00.0,30.9,23.8,03.6,0000.0,0006.05,0003.18,0002.55
2022-12-17 12:40:00,,0821.8,5.04,0.00,22.1,21.7,00.0,30.9,24.0,03.6,0000.0,0005.96,0003.16,0002.53
2022-12-17 12:41:00,,0821.8,4.95,0.00,22.2,22.2,00.0,30.9,24.1,03.6,0000.0,0005.83,0003.16,0002.52
2022-12-17 12:42:00,,0821.8,5.04,0.00,22.2,21.8,00.0,30.9,24.1,03.6,0000.0,0005.68,0003.15,0002.52
2022-12-17 12:43:00,,0821.8,4.99,0.00,22.2,21.5,00.0,31.0,24.0,03.6,0000.0,0005.42,0003.16,0002.50
2022-12-17 12:44:00,,0821.8,4.96,0.00,22.2,21.2,00.0,31.0,24.0,03.6,0000.0,0005.07,0003.11,0002.48
2022-12-17 12:45:00,,0821.8,5.05,0.00,22.2,20.9,00.0,31.0,23.9,03.7,0000.0,0005.47,0003.12,0002.47
2022-12-17 12:46:00,,0821.8,4.96,0.00,22.1,20.7,00.0,31.0,23.8,03.7,0000.0,0005.32,0003.09,0002.46
2022-12-17 12:47:00,,0821.8,5.03,0.00,22.1,20.6,00.0,31.0,23.8,03.7,0000.0,0005.37,0003.13,0002.45
2022-12-17 12:48:00,,0821.8,4.99,0.00,22.1,20.4,00.0,31.0,23.8,03.7,0000.0,0005.34,0003.15,0002.44
2022-12-17 12:49:00,,0821.8,5.00,0.00,22.0,20.3,00.0,31.0,23.7,03.7,0000.0,0005.35,0003.16,0002.43
2022-12-17 12:50:00,,0821.8,5.01,0.00,22.0,20.3,00.0,30.9,23.7,03.7,0000.0,0005.31,0003.16,0002.43
2022-12-17 12:51:00,,0821.8,4.96,0.00,22.0,20.2,00.0,30.9,23.7,03.7,0000.0,0005.43,0003.17,0002.42
2022-12-17 12:52:00,,0821.8,5.02,0.00,22.0,20.9,00.0,30.9,23.8,03.7,0000.0,0005.51,0003.14,0002.40
2022-12-17 12:53:00,,0821.9,4.96,0.00,22.1,21.9,00.0,30.8,24.0,03.7,0000.0,0005.50,0003.12,0002.37
2022-12-17 12:54:00,,0822.2,5.05,0.00,22.2,22.1,00.0,30.9,24.2,03.7,0000.0,0005.54,0003.10,0002.36
2022-12-17 12:55:00,,0821.9,4.98,0.00,22.2,21.7,00.0,30.9,24.1,03.6,0000.0,0005.80,0003.15,0002.37
2022-12-17 12:56:00,,0822.1,4.97,0.00,22.2,21.3,00.0,30.9,24.0,03.6,0000.0,0005.27,0003.13,0002.37
2022-12-17 12:57:00,,0821.9,5.05,0.00,22.1,21.1,00.0,31.0,23.9,03.6,0000.0,0005.26,0003.13,0002.38
2022-12-17 12:58:00,,0822.0,4.97,0.00,22.1,20.8,00.0,31.0,23.9,03.6,0000.0,0005.13,0003.09,0002.39
2022-12-17 12:59:00,,0822.1,5.03,0.00,22.1,20.7,00.0,30.9,23.8,03.6,0000.0,0005.04,0003.05,0002.40
